Greenville, AL

11:57 PM CDT on September 24, 2017 (GMT -0500)
Greenville Municipal

Weather History for KPRN - February, 2013

Change the Weather History Date:

Tuesday, February 26, 2013

  Actual Average Record
Temperature  
Mean Temperature 54 °F -  
Max Temperature 61 °F 64 °F 85 °F (1962)
Min Temperature 45 °F 38 °F 18 °F (1967)
Degree Days  
Heating Degree Days 12    
Growing Degree Days 4 (Base 50)    
Moisture  
Dew Point 48 °F    
Average Humidity 75    
Maximum Humidity 96    
Minimum Humidity 42    
Precipitation  
Precipitation 0.50 in - - ()
Sea Level Pressure  
Sea Level Pressure 29.62 in    
Wind  
Wind Speed 7 mph (SW)    
Max Wind Speed 20 mph    
Max Gust Speed 25 mph    
Visibility 9 miles    
Events Rain , Hail    
Averages and records for this station are not official NWS values.
T = Trace of Precipitation, MM = Missing Value Source: NWS Daily Summary

Daily Weather History Graph

Daily Weather History Graph

Search for Another Location

Airport or City:

Trip Planner

Search our weather history database for the weather conditions in past years. The results will help you decide how hot, cold, wet, or windy it might be!

Date:

Astronomy

Feb. 26, 2013 Rise Set
Actual Time 6:16 AM CST 5:42 PM CST
Civil Twilight 5:52 AM CST 6:06 PM CST
Nautical Twilight 5:23 AM CST 6:35 PM CST
Astronomical Twilight 4:55 AM CST 7:03 PM CST
Moon 6:50 PM CST (2/26) 6:25 AM CST (2/26)
Length of Visible Light 12h 14m
Length of Day
11h 25m
Full, 99% of the Moon is Illuminated
Feb 26
Full
Mar 4
Last Quarter
Mar 11
New
Mar 19
First Quarter
Mar 27
Full

Hourly Weather History & Observations

Time (CST) Temp. Windchill Dew Point Humidity Pressure Visibility Wind Dir Wind Speed Gust Speed Precip Events Conditions
12:35 AM 59.0 °F - 57.2 °F 94% 29.54 in 2.5 mi ESE 5.8 mph - 0.21 in Rain Heavy Rain
12:56 AM 59.0 °F - 57.0 °F 93% 29.55 in 2.0 mi Calm Calm - 0.41 in Rain Heavy Rain
1:06 AM 59.0 °F - 57.2 °F 94% 29.56 in 3.0 mi ESE 4.6 mph - 0.05 in Rain Heavy Rain
1:08 AM 59.0 °F - 57.2 °F 94% 29.56 in 2.5 mi ESE 6.9 mph - 0.07 in Rain Heavy Rain
1:18 AM 59.0 °F - 57.2 °F 94% 29.55 in 5.0 mi ESE 4.6 mph - 0.08 in Rain Light Rain
1:51 AM 59.0 °F - 57.2 °F 94% 29.52 in 10.0 mi ESE 5.8 mph - 0.09 in   Overcast
1:56 AM 60.1 °F - 57.9 °F 93% 29.50 in 10.0 mi ESE 8.1 mph - 0.09 in   Overcast
2:33 AM 60.8 °F - 59.0 °F 94% 29.49 in 10.0 mi ESE 4.6 mph - N/A   Mostly Cloudy
2:56 AM 60.1 °F - 59.0 °F 96% 29.50 in 10.0 mi SSE 4.6 mph - N/A   Mostly Cloudy
3:17 AM 60.8 °F - 59.0 °F 94% 29.51 in 10.0 mi WSW 6.9 mph - N/A   Overcast
3:40 AM 60.8 °F - 59.0 °F 94% 29.51 in 10.0 mi South 3.5 mph - N/A   Scattered Clouds
3:56 AM 60.1 °F - 59.0 °F 96% 29.49 in 10.0 mi SSE 4.6 mph - N/A   Partly Cloudy
4:39 AM 60.8 °F - 59.0 °F 94% 29.51 in 10.0 mi South 6.9 mph - N/A   Mostly Cloudy
4:45 AM - - - N/A% - - North - - N/A Hail Hail
4:47 AM 60.8 °F - 59.0 °F 94% 29.51 in 10.0 mi SSW 6.9 mph - N/A   Scattered Clouds
4:56 AM 61.0 °F - 57.9 °F 90% 29.51 in 10.0 mi SW 8.1 mph - N/A   Partly Cloudy
5:56 AM 57.9 °F - 53.1 °F 84% 29.53 in 10.0 mi SW 11.5 mph - N/A   Partly Cloudy
6:43 AM 55.4 °F - 51.8 °F 88% 29.57 in 10.0 mi SW 9.2 mph - N/A   Mostly Cloudy
6:56 AM 55.9 °F - 52.0 °F 87% 29.57 in 10.0 mi WSW 8.1 mph 16.1 mph N/A   Overcast
7:56 AM 54.0 °F - 46.0 °F 75% 29.61 in 10.0 mi West 11.5 mph - N/A   Mostly Cloudy
8:56 AM 54.0 °F - 42.1 °F 64% 29.63 in 10.0 mi WSW 15.0 mph 21.9 mph N/A   Scattered Clouds
9:56 AM 55.9 °F - 41.0 °F 57% 29.65 in 10.0 mi WSW 11.5 mph 20.7 mph N/A   Mostly Cloudy
10:56 AM 57.0 °F - 39.0 °F 51% 29.66 in 10.0 mi SSW 15.0 mph 21.9 mph N/A   Partly Cloudy
11:56 AM 57.9 °F - 37.9 °F 47% 29.67 in 10.0 mi WSW 18.4 mph 25.3 mph N/A   Clear
12:56 PM 57.0 °F - 37.9 °F 49% 29.67 in 10.0 mi WSW 15.0 mph 24.2 mph N/A   Scattered Clouds
1:56 PM 57.9 °F - 36.0 °F 44% 29.66 in 10.0 mi WSW 15.0 mph 23.0 mph N/A   Scattered Clouds
2:56 PM 59.0 °F - 36.0 °F 42% 29.67 in 10.0 mi West 19.6 mph 24.2 mph N/A   Clear
3:56 PM 57.9 °F - 37.0 °F 46% 29.69 in 10.0 mi WSW 6.9 mph 20.7 mph N/A   Partly Cloudy
4:56 PM 57.0 °F - 37.0 °F 47% 29.70 in 10.0 mi West 11.5 mph - N/A   Clear
5:56 PM 54.0 °F - 37.0 °F 53% 29.75 in 10.0 mi WNW 6.9 mph - N/A   Clear
6:56 PM 51.1 °F - 37.9 °F 61% 29.78 in 10.0 mi West 5.8 mph - N/A   Clear
7:56 PM 50.0 °F - 37.0 °F 61% 29.82 in 10.0 mi WNW 4.6 mph - N/A   Clear
8:56 PM 48.0 °F - 36.0 °F 63% 29.85 in 10.0 mi WNW 5.8 mph - N/A   Clear
10:56 PM 46.0 °F 42.5 °F 34.0 °F 63% 29.89 in 10.0 mi WNW 6.9 mph - N/A   Clear
11:56 PM 45.0 °F 42.6 °F 34.0 °F 65% 29.89 in 10.0 mi WNW 4.6 mph - N/A   Clear